owner,sensor,date,latitude,longitude,vertical_datum,wind_speed,wind_to_direction,wind_speed_of_gust,qcFlag 
TABS,ioos:station:wmo:42047:1,2015-10-01T00:00:00Z,27.8966,-93.5973,4.0,7.329345128,2.893418238,8.45,'11111222,11111222,11111222' 
TABS,ioos:station:wmo:42047:1,2015-10-01T00:30:00Z,27.8966,-93.5973,4.0,7.099647879,2.987120352,8.45,'11111222,11111222,11111222' 
TABS,ioos:station:wmo:42047:1,2015-10-01T01:00:00Z,27.8966,-93.5973,4.0,7.171366676,358.8811883,8.53,'11111222,11111222,11111222' 
TABS,ioos:station:wmo:42047:1,2015-10-01T01:30:00Z,27.8966,-93.5973,4.0,6.833227641,358.238692,8.21,'11111222,11111222,11111222' 
TABS,ioos:station:wmo:42047:1,2015-10-01T02:00:00Z,27.8966,-93.5973,4.0,6.202080296,354.1697099,7.48,'11111222,11111222,11111222' 
TABS,ioos:station:wmo:42047:1,2015-10-01T02:30:00Z,27.8966,-93.5973,4.0,6.199935484,352.026537,7.38,'11111222,11111222,11111222' 
TABS,ioos:station:wmo:42047:1,2015-10-01T03:00:00Z,27.8966,-93.5973,4.0,6.100631115,356.6167917,7.15,'11111222,11111222,11111222' 
TABS,ioos:station:wmo:42047:1,2015-10-01T03:30:00Z,27.8966,-93.5973,4.0,6.301468083,350.7766559,7.39,'11111222,11111222,11111222' 
TABS,ioos:station:wmo:42047:1,2015-10-01T04:00:00Z,27.8966,-93.5973,4.0,6.461586492,352.0828866,7.58,'11111222,11111222,11111222' 
TABS,ioos:station:wmo:42047:1,2015-10-01T04:30:00Z,27.8966,-93.5973,4.0,6.083625564,358.0216145,7.42,'11111222,11111222,11111222' 
TABS,ioos:station:wmo:42047:1,2015-10-01T05:00:00Z,27.8966,-93.5973,4.0,6.24020833,352.7267394,7.47,'11111222,11111222,11111222' 
TABS,ioos:station:wmo:42047:1,2015-10-01T05:30:00Z,27.8966,-93.5973,4.0,6.388239194,5.389088699,7.62,'11111222,11111222,11111222' 
TABS,ioos:station:wmo:42047:1,2015-10-01T06:00:00Z,27.8966,-93.5973,4.0,6.309714732,3.179612225,7.72,'11111222,11111222,11111222' 
TABS,ioos:station:wmo:42047:1,2015-10-01T06:30:00Z,27.8966,-93.5973,4.0,7.239281732,16.53221772,8.46,'11111222,11111222,11111222' 
TABS,ioos:station:wmo:42047:1,2015-10-01T07:00:00Z,27.8966,-93.5973,4.0,7.34441965,33.2786761,8.6,'11111222,11111222,11111222' 
TABS,ioos:station:wmo:42047:1,2015-10-01T07:30:00Z,27.8966,-93.5973,4.0,8.38676338,41.61621133,9.48,'11111222,11111222,11111222' 
TABS,ioos:station:wmo:42047:1,2015-10-01T08:00:00Z,27.8966,-93.5973,4.0,8.452123993,38.65950739,9.54,'11111222,11111222,11111222' 
TABS,ioos:station:wmo:42047:1,2015-10-01T08:30:00Z,27.8966,-93.5973,4.0,8.526347401,41.86203341,9.74,'11111222,11111222,11111222' 
TABS,ioos:station:wmo:42047:1,2015-10-01T09:00:00Z,27.8966,-93.5973,4.0,8.126229138,40.70805519,9.94,'11111222,11111222,11111222' 
TABS,ioos:station:wmo:42047:1,2015-10-01T09:30:00Z,27.8966,-93.5973,4.0,8.753222264,33.49007944,10.38,'11111222,11111222,11111222' 
TABS,ioos:station:wmo:42047:1,2015-10-01T10:00:00Z,27.8966,-93.5973,4.0,8.532461544,34.63965157,10.25,'11111222,11111222,11111222' 
TABS,ioos:station:wmo:42047:1,2015-10-01T10:30:00Z,27.8966,-93.5973,4.0,8.281575937,40.15073804,10.23,'11111222,11111222,11111222' 
TABS,ioos:station:wmo:42047:1,2015-10-01T11:00:00Z,27.8966,-93.5973,4.0,8.386620297,36.172741,10.25,'11111222,11111222,11111222' 
TABS,ioos:station:wmo:42047:1,2015-10-01T11:30:00Z,27.8966,-93.5973,4.0,8.602755373,34.96444687,10.09,'11111222,11111222,11111222' 
TABS,ioos:station:wmo:42047:1,2015-10-01T12:00:00Z,27.8966,-93.5973,4.0,8.53137738,33.42900667,10.21,'11111222,11111222,11111222' 
TABS,ioos:station:wmo:42047:1,2015-10-01T12:30:00Z,27.8966,-93.5973,4.0,8.876018251,36.98579297,10.07,'11111222,11111222,11111222' 
TABS,ioos:station:wmo:42047:1,2015-10-01T13:00:00Z,27.8966,-93.5973,4.0,8.762197213,28.64149425,10.4,'11111222,11111222,11111222' 
TABS,ioos:station:wmo:42047:1,2015-10-01T13:30:00Z,27.8966,-93.5973,4.0,8.590692638,28.35468502,10.43,'11111222,11111222,11111222' 
TABS,ioos:station:wmo:42047:1,2015-10-01T14:00:00Z,27.8966,-93.5973,4.0,9.13247502,30.60840661,10.58,'11111222,11111222,11111222' 
TABS,ioos:station:wmo:42047:1,2015-10-01T14:30:00Z,27.8966,-93.5973,4.0,8.090302837,33.70942026,9.3,'11111222,11111222,11111222' 
TABS,ioos:station:wmo:42047:1,2015-10-01T15:00:00Z,27.8966,-93.5973,4.0,8.512449706,27.79901827,10.24,'11111222,11111222,11111222' 
TABS,ioos:station:wmo:42047:1,2015-10-01T15:30:00Z,27.8966,-93.5973,4.0,8.005623024,27.20492677,9.79,'11111222,11111222,11111222' 
TABS,ioos:station:wmo:42047:1,2015-10-01T16:00:00Z,27.8966,-93.5973,4.0,8.422363089,23.73428441,9.98,'11111222,11111222,11111222' 
TABS,ioos:station:wmo:42047:1,2015-10-01T16:30:00Z,27.8966,-93.5973,4.0,8.202487428,25.87751374,9.41,'11111222,11111222,11111222' 
TABS,ioos:station:wmo:42047:1,2015-10-01T17:00:00Z,27.8966,-93.5973,4.0,7.940358934,21.65375546,9.4,'11111222,11111222,11111222' 
TABS,ioos:station:wmo:42047:1,2015-10-01T17:30:00Z,27.8966,-93.5973,4.0,7.769581713,22.07502572,9.33,'11111222,11111222,11111222' 
TABS,ioos:station:wmo:42047:1,2015-10-01T18:00:00Z,27.8966,-93.5973,4.0,7.442210693,15.82882271,8.94,'11111222,11111222,11111222' 
TABS,ioos:station:wmo:42047:1,2015-10-01T18:30:00Z,27.8966,-93.5973,4.0,7.852655602,10.93765115,9.32,'11111222,11111222,11111222' 
TABS,ioos:station:wmo:42047:1,2015-10-01T19:00:00Z,27.8966,-93.5973,4.0,7.317772885,8.882845361,8.82,'11111222,11111222,11111222' 
TABS,ioos:station:wmo:42047:1,2015-10-01T19:30:00Z,27.8966,-93.5973,4.0,7.85684415,5.550731415,9.19,'11111222,11111222,11111222' 
TABS,ioos:station:wmo:42047:1,2015-10-01T20:00:00Z,27.8966,-93.5973,4.0,8.886894846,2.25689554,10.6,'11111222,11111222,11111222' 
TABS,ioos:station:wmo:42047:1,2015-10-01T20:30:00Z,27.8966,-93.5973,4.0,7.730232855,359.5550716,9.85,'11111222,11144222,11111222' 
TABS,ioos:station:wmo:42047:1,2015-10-01T21:00:00Z,27.8966,-93.5973,4.0,8.665194747,358.0157453,10.62,'11111222,11111222,11111222' 
TABS,ioos:station:wmo:42047:1,2015-10-01T21:30:00Z,27.8966,-93.5973,4.0,10.0394472,348.2757593,10.98,'11111222,11111222,11111222' 
TABS,ioos:station:wmo:42047:1,2015-10-01T22:00:00Z,27.8966,-93.5973,4.0,8.898550444,2.511711197,10.57,'11111222,11111222,11111222' 
TABS,ioos:station:wmo:42047:1,2015-10-01T22:30:00Z,27.8966,-93.5973,4.0,9.047568734,2.34354651,11.19,'11111222,11111222,11111222' 
TABS,ioos:station:wmo:42047:1,2015-10-01T23:00:00Z,27.8966,-93.5973,4.0,8.96451895,356.7384249,11.04,'11111222,11111222,11111222' 
TABS,ioos:station:wmo:42047:1,2015-10-01T23:30:00Z,27.8966,-93.5973,4.0,8.345471826,5.983626562,10.03,'11111222,11111222,11111222' 
TABS,ioos:station:wmo:42047:1,2015-10-02T00:00:00Z,27.8966,-93.5973,4.0,8.333174665,358.4181988,10.52,'11111222,11111222,11111222' 
TABS,ioos:station:wmo:42047:1,2015-10-02T00:30:00Z,27.8966,-93.5973,4.0,8.11843581,2.611959559,9.82,'11111222,11111222,11111222' 
TABS,ioos:station:wmo:42047:1,2015-10-02T01:00:00Z,27.8966,-93.5973,4.0,7.687971124,2.609113793,9.38,'11111222,11111222,11111222' 
TABS,ioos:station:wmo:42047:1,2015-10-02T01:30:00Z,27.8966,-93.5973,4.0,8.750965661,9.537436098,10.41,'11111222,11111222,11111222' 
TABS,ioos:station:wmo:42047:1,2015-10-02T02:00:00Z,27.8966,-93.5973,4.0,9.145124384,15.08453021,10.56,'11111222,11111222,11111222' 
TABS,ioos:station:wmo:42047:1,2015-10-02T02:30:00Z,27.8966,-93.5973,4.0,8.373111727,9.000854452,9.77,'11111222,11111222,11111222' 
TABS,ioos:station:wmo:42047:1,2015-10-02T03:00:00Z,27.8966,-93.5973,4.0,8.230607511,359.3036434,9.91,'11111222,11144222,11111222' 
TABS,ioos:station:wmo:42047:1,2015-10-02T03:30:00Z,27.8966,-93.5973,4.0,8.065314625,8.34085011,9.58,'11111222,11111222,11111222' 
TABS,ioos:station:wmo:42047:1,2015-10-02T04:00:00Z,27.8966,-93.5973,4.0,8.226888841,13.78263076,10.11,'11111222,11111222,11111222' 
TABS,ioos:station:wmo:42047:1,2015-10-02T04:30:00Z,27.8966,-93.5973,4.0,7.972264421,21.25396658,10.24,'11111222,11111222,11111222' 
TABS,ioos:station:wmo:42047:1,2015-10-02T05:00:00Z,27.8966,-93.5973,4.0,8.62765901,9.473007238,10.34,'11111222,11111222,11111222' 
TABS,ioos:station:wmo:42047:1,2015-10-02T05:30:00Z,27.8966,-93.5973,4.0,7.956010307,26.82243013,10.19,'11111222,11111222,11111222' 
TABS,ioos:station:wmo:42047:1,2015-10-02T06:00:00Z,27.8966,-93.5973,4.0,7.715704764,20.00822665,10.11,'11111222,11111222,11111222' 
TABS,ioos:station:wmo:42047:1,2015-10-02T06:30:00Z,27.8966,-93.5973,4.0,7.479766039,12.58672767,9.26,'11111222,11111222,11111222' 
TABS,ioos:station:wmo:42047:1,2015-10-02T07:00:00Z,27.8966,-93.5973,4.0,7.706685409,12.97208626,9.58,'11111222,11111222,11111222' 
TABS,ioos:station:wmo:42047:1,2015-10-02T07:30:00Z,27.8966,-93.5973,4.0,8.466339233,11.37605603,10.27,'11111222,11111222,11111222' 
TABS,ioos:station:wmo:42047:1,2015-10-02T08:00:00Z,27.8966,-93.5973,4.0,8.305371756,20.8787576,9.97,'11111222,11111222,11111222' 
TABS,ioos:station:wmo:42047:1,2015-10-02T08:30:00Z,27.8966,-93.5973,4.0,8.588859063,20.01704548,10.55,'11111222,11111222,11111222' 
TABS,ioos:station:wmo:42047:1,2015-10-02T09:00:00Z,27.8966,-93.5973,4.0,8.961657213,35.23266257,11.33,'11111222,11111222,11111222' 
TABS,ioos:station:wmo:42047:1,2015-10-02T09:30:00Z,27.8966,-93.5973,4.0,8.710022962,36.73803829,10.24,'11111222,11111222,11111222' 
TABS,ioos:station:wmo:42047:1,2015-10-02T10:00:00Z,27.8966,-93.5973,4.0,8.931074963,40.41311253,10.92,'11111222,11111222,11111222' 
TABS,ioos:station:wmo:42047:1,2015-10-02T10:30:00Z,27.8966,-93.5973,4.0,7.948364612,40.7651821,9.75,'11111222,11111222,11111222' 
TABS,ioos:station:wmo:42047:1,2015-10-02T11:00:00Z,27.8966,-93.5973,4.0,8.164165603,31.78192721,10.3,'11111222,11111222,11111222' 
TABS,ioos:station:wmo:42047:1,2015-10-02T11:30:00Z,27.8966,-93.5973,4.0,8.57375647,27.2820575,10.73,'11111222,11111222,11111222' 
TABS,ioos:station:wmo:42047:1,2015-10-02T12:00:00Z,27.8966,-93.5973,4.0,8.944188057,24.0142562,11.17,'11111222,11111222,11111222' 
TABS,ioos:station:wmo:42047:1,2015-10-02T12:30:00Z,27.8966,-93.5973,4.0,8.563790049,31.77815756,10.49,'11111222,11111222,11111222' 
TABS,ioos:station:wmo:42047:1,2015-10-02T13:00:00Z,27.8966,-93.5973,4.0,8.1923684,22.84017529,10.67,'11111222,11111222,11111222' 
TABS,ioos:station:wmo:42047:1,2015-10-02T13:30:00Z,27.8966,-93.5973,4.0,8.55214593,17.4177196,10.56,'11111222,11111222,11111222' 
TABS,ioos:station:wmo:42047:1,2015-10-02T14:00:00Z,27.8966,-93.5973,4.0,8.389666263,14.56604018,10.68,'11111222,11111222,11111222' 
TABS,ioos:station:wmo:42047:1,2015-10-02T14:30:00Z,27.8966,-93.5973,4.0,8.23786987,8.375775432,11.1,'11111222,11111222,11111222' 
TABS,ioos:station:wmo:42047:1,2015-10-02T15:00:00Z,27.8966,-93.5973,4.0,8.681992859,9.212555156,10.44,'11111222,11111222,11111222' 
TABS,ioos:station:wmo:42047:1,2015-10-02T15:30:00Z,27.8966,-93.5973,4.0,8.934707606,1.859800722,11.01,'11111222,11111222,11111222' 
TABS,ioos:station:wmo:42047:1,2015-10-02T16:00:00Z,27.8966,-93.5973,4.0,8.90461678,3.283117608,11.18,'11111222,11111222,11111222' 
TABS,ioos:station:wmo:42047:1,2015-10-02T16:30:00Z,27.8966,-93.5973,4.0,8.874345046,5.042228819,10.79,'11111222,11111222,11111222' 
TABS,ioos:station:wmo:42047:1,2015-10-02T17:00:00Z,27.8966,-93.5973,4.0,8.751988346,4.062075519,11.84,'11111222,11111222,11111222' 
TABS,ioos:station:wmo:42047:1,2015-10-02T17:30:00Z,27.8966,-93.5973,4.0,8.80274957,358.5676967,10.49,'11111222,11111222,11111222' 
TABS,ioos:station:wmo:42047:1,2015-10-02T18:00:00Z,27.8966,-93.5973,4.0,8.531500454,358.9252024,10.5,'11111222,11111222,11111222' 
TABS,ioos:station:wmo:42047:1,2015-10-02T18:30:00Z,27.8966,-93.5973,4.0,8.517992721,355.3534649,10.2,'11111222,11111222,11111222' 
TABS,ioos:station:wmo:42047:1,2015-10-02T19:00:00Z,27.8966,-93.5973,4.0,8.171248375,354.2403703,10.01,'11111222,11111222,11111222' 
TABS,ioos:station:wmo:42047:1,2015-10-02T19:30:00Z,27.8966,-93.5973,4.0,8.346520233,343.4320866,10.32,'11111222,11111222,11111222' 
TABS,ioos:station:wmo:42047:1,2015-10-02T20:00:00Z,27.8966,-93.5973,4.0,8.233377193,350.0684262,10.42,'11111222,11111222,11111222' 
TABS,ioos:station:wmo:42047:1,2015-10-02T20:30:00Z,27.8966,-93.5973,4.0,8.105862076,338.6578364,10.54,'11111222,11111222,11111222' 
TABS,ioos:station:wmo:42047:1,2015-10-02T21:00:00Z,27.8966,-93.5973,4.0,8.505557007,348.6766726,10.33,'11111222,11111222,11111222' 
TABS,ioos:station:wmo:42047:1,2015-10-02T21:30:00Z,27.8966,-93.5973,4.0,9.186958147,337.5382921,10.62,'11111222,11111222,11111222' 
TABS,ioos:station:wmo:42047:1,2015-10-02T22:00:00Z,27.8966,-93.5973,4.0,8.753113732,345.9159516,10.32,'11111222,11111222,11111222' 
TABS,ioos:station:wmo:42047:1,2015-10-02T22:30:00Z,27.8966,-93.5973,4.0,9.313565375,342.2457847,11.28,'11111222,11111222,11111222' 
TABS,ioos:station:wmo:42047:1,2015-10-02T23:00:00Z,27.8966,-93.5973,4.0,9.366803083,348.2340233,12.13,'11111222,11111222,11111222' 
TABS,ioos:station:wmo:42047:1,2015-10-02T23:30:00Z,27.8966,-93.5973,4.0,8.712864053,345.102295,10.58,'11111222,11111222,11111222' 
TABS,ioos:station:wmo:42047:1,2015-10-03T00:00:00Z,27.8966,-93.5973,4.0,9.31773041,349.1119655,12.17,'11111222,11111222,11111222' 
TABS,ioos:station:wmo:42047:1,2015-10-03T00:30:00Z,27.8966,-93.5973,4.0,9.277208632,4.389011124,11.67,'11111222,11111222,11111222' 
TABS,ioos:station:wmo:42047:1,2015-10-03T01:00:00Z,27.8966,-93.5973,4.0,8.659711312,2.713505861,11.6,'11111222,11111222,11111222' 
TABS,ioos:station:wmo:42047:1,2015-10-03T01:30:00Z,27.8966,-93.5973,4.0,8.924438358,4.240917058,11.98,'11111222,11111222,11111222' 
TABS,ioos:station:wmo:42047:1,2015-10-03T02:00:00Z,27.8966,-93.5973,4.0,8.895448274,7.947693385,10.73,'11111222,11111222,11111222' 
TABS,ioos:station:wmo:42047:1,2015-10-03T02:30:00Z,27.8966,-93.5973,4.0,9.028715302,22.19002655,11.29,'11111222,11111222,11111222' 
TABS,ioos:station:wmo:42047:1,2015-10-03T03:00:00Z,27.8966,-93.5973,4.0,8.511462859,11.17767819,11.04,'11111222,11111222,11111222' 
TABS,ioos:station:wmo:42047:1,2015-10-03T03:30:00Z,27.8966,-93.5973,4.0,8.580775023,17.35775689,11.03,'11111222,11111222,11111222' 
TABS,ioos:station:wmo:42047:1,2015-10-03T04:00:00Z,27.8966,-93.5973,4.0,7.624886884,15.98643487,10.44,'11111222,11111222,11111222' 
TABS,ioos:station:wmo:42047:1,2015-10-03T04:30:00Z,27.8966,-93.5973,4.0,7.853266836,16.49633991,9.36,'11111222,11111222,11111222' 
TABS,ioos:station:wmo:42047:1,2015-10-03T05:00:00Z,27.8966,-93.5973,4.0,7.884795495,15.44606979,9.96,'11111222,11111222,11111222' 
TABS,ioos:station:wmo:42047:1,2015-10-03T05:30:00Z,27.8966,-93.5973,4.0,7.863078278,14.2834197,10.38,'11111222,11111222,11111222' 
TABS,ioos:station:wmo:42047:1,2015-10-03T06:00:00Z,27.8966,-93.5973,4.0,7.06740405,15.51084546,9.33,'11111222,11111222,11111222' 
TABS,ioos:station:wmo:42047:1,2015-10-03T06:30:00Z,27.8966,-93.5973,4.0,6.905447125,20.69174221,8.9,'11111222,11111222,11111222' 
TABS,ioos:station:wmo:42047:1,2015-10-03T07:00:00Z,27.8966,-93.5973,4.0,6.453750847,20.87790245,8.18,'11111222,11111222,11111222' 
TABS,ioos:station:wmo:42047:1,2015-10-03T07:30:00Z,27.8966,-93.5973,4.0,6.203224968,16.09739486,8.13,'11111222,11111222,11111222' 
TABS,ioos:station:wmo:42047:1,2015-10-03T08:00:00Z,27.8966,-93.5973,4.0,7.069441279,31.4638596,9.16,'11111222,11111222,11111222' 
TABS,ioos:station:wmo:42047:1,2015-10-03T08:30:00Z,27.8966,-93.5973,4.0,7.185826327,38.16140522,8.94,'11111222,11111222,11111222' 
TABS,ioos:station:wmo:42047:1,2015-10-03T09:00:00Z,27.8966,-93.5973,4.0,6.069415128,25.67818131,7.8,'11111222,11111222,11111222' 
TABS,ioos:station:wmo:42047:1,2015-10-03T09:30:00Z,27.8966,-93.5973,4.0,6.114646351,19.88678295,7.96,'11111222,11111222,11111222' 
TABS,ioos:station:wmo:42047:1,2015-10-03T10:00:00Z,27.8966,-93.5973,4.0,6.552289676,25.78263407,8.51,'11111222,11111222,11111222' 
TABS,ioos:station:wmo:42047:1,2015-10-03T10:30:00Z,27.8966,-93.5973,4.0,6.414335507,23.32734342,9.04,'11111222,11111222,11111222' 
TABS,ioos:station:wmo:42047:1,2015-10-03T11:00:00Z,27.8966,-93.5973,4.0,6.266306727,36.30269799,8.54,'11111222,11111222,11111222' 
TABS,ioos:station:wmo:42047:1,2015-10-03T11:30:00Z,27.8966,-93.5973,4.0,6.7308989,35.93320277,9.12,'11111222,11111222,11111222' 
TABS,ioos:station:wmo:42047:1,2015-10-03T12:00:00Z,27.8966,-93.5973,4.0,7.19850679,39.30590513,9.5,'11111222,11111222,11111222' 
TABS,ioos:station:wmo:42047:1,2015-10-03T12:30:00Z,27.8966,-93.5973,4.0,6.719650289,25.00117123,8.69,'11111222,11111222,11111222' 
TABS,ioos:station:wmo:42047:1,2015-10-03T13:00:00Z,27.8966,-93.5973,4.0,5.612165358,28.75684319,8.06,'11111222,11111222,11111222' 
TABS,ioos:station:wmo:42047:1,2015-10-03T13:30:00Z,27.8966,-93.5973,4.0,5.610008913,18.82225854,7.39,'11111222,11111222,11111222' 
TABS,ioos:station:wmo:42047:1,2015-10-03T14:00:00Z,27.8966,-93.5973,4.0,6.360070754,37.13986144,8.14,'11111222,11111222,11111222' 
TABS,ioos:station:wmo:42047:1,2015-10-03T14:30:00Z,27.8966,-93.5973,4.0,5.336309586,23.05734271,7.54,'11111222,11111222,11111222' 
TABS,ioos:station:wmo:42047:1,2015-10-03T15:00:00Z,27.8966,-93.5973,4.0,5.32888356,20.54320254,7.09,'11111222,11111222,11111222' 
TABS,ioos:station:wmo:42047:1,2015-10-03T15:30:00Z,27.8966,-93.5973,4.0,4.872832852,9.210794543,6.47,'11111222,11111222,11111222' 
TABS,ioos:station:wmo:42047:1,2015-10-03T16:00:00Z,27.8966,-93.5973,4.0,4.693080012,14.18405062,6.53,'11111222,11111222,11111222' 
TABS,ioos:station:wmo:42047:1,2015-10-03T16:30:00Z,27.8966,-93.5973,4.0,4.520641547,3.931886343,6.5,'11111222,11111222,11111222' 
TABS,ioos:station:wmo:42047:1,2015-10-03T17:00:00Z,27.8966,-93.5973,4.0,4.641745361,4.076602348,6.9,'11111222,11111222,11111222' 
TABS,ioos:station:wmo:42047:1,2015-10-03T17:30:00Z,27.8966,-93.5973,4.0,4.220758226,358.9137463,6.19,'11111222,11111222,11111222' 
TABS,ioos:station:wmo:42047:1,2015-10-03T18:00:00Z,27.8966,-93.5973,4.0,4.504719747,351.0602454,5.87,'11111222,11111222,11111222' 
TABS,ioos:station:wmo:42047:1,2015-10-03T18:30:00Z,27.8966,-93.5973,4.0,4.886358562,347.4710111,6.65,'11111222,11111222,11111222' 
TABS,ioos:station:wmo:42047:1,2015-10-03T19:00:00Z,27.8966,-93.5973,4.0,4.535570526,342.6834851,6.88,'11111222,11111222,11111222' 
TABS,ioos:station:wmo:42047:1,2015-10-03T19:30:00Z,27.8966,-93.5973,4.0,4.254092148,346.126907,6.18,'11111222,11111222,11111222' 
TABS,ioos:station:wmo:42047:1,2015-10-03T20:00:00Z,27.8966,-93.5973,4.0,4.082082802,346.5423031,6.31,'11111222,11111222,11111222' 
TABS,ioos:station:wmo:42047:1,2015-10-03T20:30:00Z,27.8966,-93.5973,4.0,4.988476721,336.3638904,6.55,'11111222,11111222,11111222' 
TABS,ioos:station:wmo:42047:1,2015-10-03T21:00:00Z,27.8966,-93.5973,4.0,4.959042246,339.335611,6.96,'11111222,11111222,11111222' 
TABS,ioos:station:wmo:42047:1,2015-10-03T21:30:00Z,27.8966,-93.5973,4.0,5.446402482,343.7943264,6.78,'11111222,11111222,11111222' 
TABS,ioos:station:wmo:42047:1,2015-10-03T22:00:00Z,27.8966,-93.5973,4.0,5.085685794,334.4929111,6.54,'11111222,11111222,11111222' 
TABS,ioos:station:wmo:42047:1,2015-10-03T22:30:00Z,27.8966,-93.5973,4.0,5.231873469,345.2729833,6.97,'11111222,11111222,11111222' 
TABS,ioos:station:wmo:42047:1,2015-10-03T23:00:00Z,27.8966,-93.5973,4.0,5.606157329,343.3103735,7.01,'11111222,11111222,11111222' 
TABS,ioos:station:wmo:42047:1,2015-10-03T23:30:00Z,27.8966,-93.5973,4.0,5.433985646,354.6144516,7.36,'11111222,11111222,11111222' 
TABS,ioos:station:wmo:42047:1,2015-10-04T00:00:00Z,27.8966,-93.5973,4.0,5.350009346,359.892695,6.77,'11111222,11144222,11111222' 
TABS,ioos:station:wmo:42047:1,2015-10-04T00:30:00Z,27.8966,-93.5973,4.0,5.695278746,11.03347903,7.2,'11111222,11111222,11111222' 
TABS,ioos:station:wmo:42047:1,2015-10-04T01:00:00Z,27.8966,-93.5973,4.0,5.285574709,9.034385128,7.25,'11111222,11111222,11111222' 
TABS,ioos:station:wmo:42047:1,2015-10-04T01:30:00Z,27.8966,-93.5973,4.0,5.442655602,358.2098831,7.01,'11111222,11111222,11111222' 
TABS,ioos:station:wmo:42047:1,2015-10-04T02:00:00Z,27.8966,-93.5973,4.0,5.458250636,11.94788872,7.06,'11111222,11111222,11111222' 
TABS,ioos:station:wmo:42047:1,2015-10-04T02:30:00Z,27.8966,-93.5973,4.0,5.978135161,8.658490526,7.8,'11111222,11111222,11111222' 
TABS,ioos:station:wmo:42047:1,2015-10-04T03:00:00Z,27.8966,-93.5973,4.0,6.071260166,13.23487477,7.93,'11111222,11111222,11111222' 
TABS,ioos:station:wmo:42047:1,2015-10-04T03:30:00Z,27.8966,-93.5973,4.0,6.504959646,22.03013314,8.4,'11111222,11111222,11111222' 
TABS,ioos:station:wmo:42047:1,2015-10-04T04:00:00Z,27.8966,-93.5973,4.0,5.723565322,21.09474824,7.65,'11111222,11111222,11111222' 
TABS,ioos:station:wmo:42047:1,2015-10-04T04:30:00Z,27.8966,-93.5973,4.0,6.144794545,10.5965086,8.23,'11111222,11111222,11111222' 
TABS,ioos:station:wmo:42047:1,2015-10-04T05:00:00Z,27.8966,-93.5973,4.0,5.554457669,10.58140032,7.12,'11111222,11111222,11111222' 
TABS,ioos:station:wmo:42047:1,2015-10-04T05:30:00Z,27.8966,-93.5973,4.0,5.800862005,17.24771432,8.04,'11111222,11111222,11111222' 
TABS,ioos:station:wmo:42047:1,2015-10-04T06:00:00Z,27.8966,-93.5973,4.0,4.813990029,5.722212162,6.12,'11111222,11111222,11111222' 
TABS,ioos:station:wmo:42047:1,2015-10-04T06:30:00Z,27.8966,-93.5973,4.0,4.598314909,9.134338343,7.12,'11111222,11111222,11111222' 
TABS,ioos:station:wmo:42047:1,2015-10-04T07:00:00Z,27.8966,-93.5973,4.0,4.872627628,1.88151583,7.1,'11111222,11111222,11111222' 
TABS,ioos:station:wmo:42047:1,2015-10-04T07:30:00Z,27.8966,-93.5973,4.0,4.406915021,13.783737,6.24,'11111222,11111222,11111222' 
TABS,ioos:station:wmo:42047:1,2015-10-04T08:00:00Z,27.8966,-93.5973,4.0,3.879226727,16.47264274,5.33,'11111222,11111222,11111222' 
TABS,ioos:station:wmo:42047:1,2015-10-04T08:30:00Z,27.8966,-93.5973,4.0,4.882058992,36.58793681,7.14,'11111222,11111222,11111222' 
TABS,ioos:station:wmo:42047:1,2015-10-04T09:00:00Z,27.8966,-93.5973,4.0,6.721621828,63.39646918,8.26,'11111222,11111222,11111222' 
TABS,ioos:station:wmo:42047:1,2015-10-04T09:30:00Z,27.8966,-93.5973,4.0,6.117417756,60.41740661,8.25,'11111222,11111222,11111222' 
TABS,ioos:station:wmo:42047:1,2015-10-04T10:00:00Z,27.8966,-93.5973,4.0,6.700119402,64.35246576,8.61,'11111222,11111222,11111222' 
TABS,ioos:station:wmo:42047:1,2015-10-04T10:30:00Z,27.8966,-93.5973,4.0,6.618051073,53.35486272,8.71,'11111222,11111222,11111222' 
TABS,ioos:station:wmo:42047:1,2015-10-04T11:00:00Z,27.8966,-93.5973,4.0,14.04719189,31.78892158,7.77,'11111222,11111222,11111222' 
TABS,ioos:station:wmo:42047:1,2015-10-04T11:30:00Z,27.8966,-93.5973,4.0,6.737017144,47.28548191,8.27,'11111222,11111222,11111222' 
TABS,ioos:station:wmo:42047:1,2015-10-04T12:00:00Z,27.8966,-93.5973,4.0,6.374080326,52.84212328,8.0,'11111222,11111222,11111222' 
TABS,ioos:station:wmo:42047:1,2015-10-04T12:30:00Z,27.8966,-93.5973,4.0,6.268221438,49.26949166,7.87,'11111222,11111222,11111222' 
TABS,ioos:station:wmo:42047:1,2015-10-04T13:00:00Z,27.8966,-93.5973,4.0,6.147723156,46.77929872,8.2,'11111222,11111222,11111222' 
TABS,ioos:station:wmo:42047:1,2015-10-04T13:30:00Z,27.8966,-93.5973,4.0,4.928539337,64.00648764,6.56,'11111222,11111222,11111222' 
TABS,ioos:station:wmo:42047:1,2015-10-04T14:00:00Z,27.8966,-93.5973,4.0,5.805867722,44.2320663,7.66,'11111222,11111222,11111222' 
TABS,ioos:station:wmo:42047:1,2015-10-04T14:30:00Z,27.8966,-93.5973,4.0,5.351233503,34.87769815,7.39,'11111222,11111222,11111222' 
TABS,ioos:station:wmo:42047:1,2015-10-04T15:00:00Z,27.8966,-93.5973,4.0,5.545637925,15.26393404,6.96,'11111222,11111222,11111222' 
TABS,ioos:station:wmo:42047:1,2015-10-04T15:30:00Z,27.8966,-93.5973,4.0,5.992603775,8.927660143,7.54,'11111222,11111222,11111222' 
TABS,ioos:station:wmo:42047:1,2015-10-04T16:00:00Z,27.8966,-93.5973,4.0,5.908172306,14.10656129,7.27,'11111222,11111222,11111222' 
TABS,ioos:station:wmo:42047:1,2015-10-04T16:30:00Z,27.8966,-93.5973,4.0,6.371883552,13.33810526,7.87,'11111222,11111222,11111222' 
TABS,ioos:station:wmo:42047:1,2015-10-04T17:00:00Z,27.8966,-93.5973,4.0,6.819039522,11.58982735,8.43,'11111222,11111222,11111222' 
TABS,ioos:station:wmo:42047:1,2015-10-04T17:30:00Z,27.8966,-93.5973,4.0,7.325639904,8.240482101,9.11,'11111222,11111222,11111222' 
TABS,ioos:station:wmo:42047:1,2015-10-04T18:00:00Z,27.8966,-93.5973,4.0,7.624499984,6.854484789,10.13,'11111222,11111222,11111222' 
TABS,ioos:station:wmo:42047:1,2015-10-04T18:30:00Z,27.8966,-93.5973,4.0,7.533531708,354.5919181,9.0,'11111222,11111222,11111222' 